Flag for Belgium Weather past 2 weeks in Bruges, Belgium

46 °F

Passing clouds.

Feels Like: 41 °F
Forecast: 39 / 47 °F
Wind: 12 mph from North

Location: Oostende Airport

Current Time: Nov 26, 2015 at 1:29:24 AM

Latest Report: Nov 26, 2015 at 12:20 AM

Visibility: N/A

Pressure: 29.92 "Hg

Humidity: 76%

Dew point: 39 °F

Location of BrugesLocation

Historic Weather in Bruges — Graph


Bruges temperature yesterday

Maximum temperature yesterday: 48 °F (at 12:20 AM)
Minimum temperature yesterday: 45 °F (at 4:50 PM)
Average temperature yesterday: 47 °F

Past Weeks' High & Low Weather Summary

High61 °F (Nov 15, 1:20 PM)100% (Nov 11, 4:20 AM)30.33 "Hg (Nov 11, 4:20 AM)
Low32 °F (Nov 23, 6:50 AM)57% (Nov 21, 1:50 AM)29.42 "Hg (Nov 21, 11:50 AM)
Average50 °F84%29.95 "Hg
* Reported Nov 10 11:20 PM — Nov 25 11:50 PM, Bruges, Weather by CustomWeather, © 2015

Note: Actual official high and low records may vary slightly from our data, if they occured in-between our weather recording intervals... More about our weather records


Bruges weather history for previous 24 hours

Time TempWeatherWind HumidityBarometerVisibility
11:50 PM
Wed, Nov 25
46 °FPassing clouds.15 mph76%29.92 "HgN/A
11:20 PM46 °FPassing clouds.16 mph76%29.92 "HgN/A
10:50 PM46 °FPassing clouds.14 mph76%29.92 "HgN/A
10:20 PM46 °FPassing clouds.13 mph82%29.89 "HgN/A
9:50 PM46 °FScattered showers. Passing clouds.10 mph76%29.89 "HgN/A
9:20 PM46 °FSprinkles. Passing clouds.20 mph76%29.89 "Hg4 mi
8:50 PM46 °FPassing clouds.15 mph76%29.86 "HgN/A
8:20 PM46 °FPassing clouds.18 mph76%29.86 "HgN/A
7:50 PM45 °FSprinkles. Passing clouds.17 mph87%29.86 "HgN/A
7:20 PM46 °FSprinkles. Partly cloudy.22 mph76%29.83 "Hg6 mi
6:50 PM46 °FPartly cloudy.18 mph82%29.83 "HgN/A
6:20 PM45 °FSprinkles. Passing clouds.20 mph81%29.83 "HgN/A
5:50 PM46 °FSprinkles. Passing clouds.20 mph76%29.80 "Hg4 mi
5:20 PM46 °FPassing clouds.17 mph82%29.80 "HgN/A
4:50 PM45 °FSprinkles. Passing clouds.14 mph81%29.80 "Hg6 mi
4:20 PM48 °FPassing clouds.17 mph66%29.77 "HgN/A
3:50 PM48 °FPassing clouds.17 mph66%29.77 "HgN/A
3:20 PM48 °FPassing clouds.16 mph71%29.77 "HgN/A
2:50 PM48 °FPassing clouds.17 mph66%29.77 "HgN/A
2:20 PM48 °FPassing clouds.16 mph71%29.77 "HgN/A
1:50 PM48 °FPassing clouds.18 mph66%29.77 "HgN/A
1:20 PM48 °FPassing clouds.18 mph66%29.77 "HgN/A
12:50 PM48 °FPassing clouds.18 mph66%29.77 "HgN/A
12:20 PM48 °FPassing clouds.20 mph71%29.77 "HgN/A
11:50 AM46 °FScattered clouds.18 mph71%29.77 "HgN/A
11:20 AM48 °FScattered clouds.18 mph76%29.77 "HgN/A
10:50 AM46 °FScattered clouds.20 mph82%29.77 "HgN/A
10:20 AM48 °FScattered clouds.17 mph76%29.77 "HgN/A
9:50 AM46 °FPassing clouds.17 mph76%29.77 "HgN/A
9:20 AM48 °FPassing clouds.17 mph76%29.77 "HgN/A
8:50 AM46 °FPassing clouds.17 mph82%29.77 "HgN/A
6:50 AM48 °FPassing clouds.17 mph82%29.74 "HgN/A
5:20 AM46 °FPassing clouds.18 mph82%29.74 "HgN/A
4:50 AM46 °FPassing clouds.18 mph82%29.74 "HgN/A
4:20 AM48 °FPassing clouds.17 mph76%29.74 "HgN/A
3:50 AM48 °FSprinkles. Partly cloudy.15 mph82%29.74 "HgN/A
3:20 AM48 °FPassing clouds.17 mph76%29.74 "HgN/A
2:50 AM48 °FPartly cloudy.18 mph76%29.74 "HgN/A
2:20 AM48 °FSprinkles. Passing clouds.18 mph82%29.74 "HgN/A
1:50 AM48 °FPassing clouds.20 mph82%29.74 "HgN/A
1:20 AM48 °FPassing clouds.20 mph82%29.74 "HgN/A
Weather by CustomWeather, © 2015

See weather overviewHow to use our weather pages